date,time,SUV Intensity [MED/Hr],UV Index,Daily total [MED],Since Last [MED]
26/08/2022,00:12:06,0.000,0.0,0.0,0.0
26/08/2022,00:13:07,-0.000,0.0,0.0,0.0
26/08/2022,00:14:06,-0.000,0.0,0.0,0.0
26/08/2022,00:15:06,0.000,0.0,0.0,0.0
26/08/2022,00:16:07,0.000,0.0,0.0,0.0
26/08/2022,00:17:06,0.000,0.0,0.0,0.0
26/08/2022,00:18:15,0.000,0.0,0.0,0.0
26/08/2022,00:19:07,0.000,0.0,0.0,0.0
26/08/2022,00:20:15,0.000,0.0,0.0,0.0
26/08/2022,00:21:14,0.000,0.0,0.0,0.0
26/08/2022,00:22:06,0.001,0.0,0.0,0.0
26/08/2022,00:23:07,-0.001,0.0,0.0,0.0
26/08/2022,00:24:06,0.001,0.0,0.0,0.0
26/08/2022,00:25:06,0.000,0.0,0.0,0.0
26/08/2022,00:26:06,0.000,0.0,0.0,0.0
26/08/2022,00:27:07,-0.001,0.0,0.0,0.0
26/08/2022,00:28:06,0.001,0.0,0.0,0.0
26/08/2022,00:29:06,0.000,0.0,0.0,0.0
26/08/2022,00:30:07,0.000,0.0,0.0,0.0
26/08/2022,00:31:15,-0.000,0.0,0.0,0.0
26/08/2022,00:32:06,0.000,0.0,0.0,0.0
26/08/2022,00:33:07,0.000,0.0,0.0,0.0
26/08/2022,00:34:06,-0.001,0.0,0.0,0.0
26/08/2022,00:35:06,-0.001,0.0,0.0,0.0
26/08/2022,00:36:07,0.001,0.0,0.0,0.0
26/08/2022,00:37:06,-0.001,0.0,0.0,0.0
26/08/2022,00:38:06,-0.000,0.0,0.0,0.0
26/08/2022,00:39:07,-0.000,0.0,0.0,0.0
26/08/2022,00:40:06,0.000,0.0,0.0,0.0
26/08/2022,00:41:06,0.000,0.0,0.0,0.0
26/08/2022,00:42:07,0.000,0.0,0.0,0.0
26/08/2022,00:43:06,0.000,0.0,0.0,0.0
26/08/2022,00:44:06,0.001,0.0,0.0,0.0
26/08/2022,00:45:07,-0.001,0.0,0.0,0.0
26/08/2022,00:46:14,-0.000,0.0,0.0,0.0
26/08/2022,00:47:06,-0.001,0.0,0.0,0.0
26/08/2022,00:48:07,-0.001,0.0,0.0,0.0
26/08/2022,00:49:15,-0.000,0.0,0.0,0.0
26/08/2022,00:50:06,-0.001,0.0,0.0,0.0
26/08/2022,00:51:07,0.000,0.0,0.0,0.0
26/08/2022,00:52:06,0.001,0.0,0.0,0.0
26/08/2022,00:53:06,0.000,0.0,0.0,0.0
26/08/2022,00:54:06,-0.001,0.0,0.0,0.0
26/08/2022,00:55:06,0.000,0.0,0.0,0.0
26/08/2022,00:56:07,0.000,0.0,0.0,0.0
26/08/2022,00:57:06,0.000,0.0,0.0,0.0
26/08/2022,00:58:06,0.000,0.0,0.0,0.0
26/08/2022,00:59:07,0.000,0.0,0.0,0.0
26/08/2022,01:00:07,0.000,0.0,0.0,0.0
26/08/2022,01:01:07,0.000,0.0,0.0,0.0
26/08/2022,01:02:06,-0.001,0.0,0.0,0.0
26/08/2022,01:03:06,0.000,0.0,0.0,0.0
26/08/2022,01:04:07,0.001,0.0,0.0,0.0
26/08/2022,01:05:06,0.000,0.0,0.0,0.0
26/08/2022,01:06:06,0.000,0.0,0.0,0.0
26/08/2022,01:07:07,0.000,0.0,0.0,0.0
26/08/2022,01:08:14,0.001,0.0,0.0,0.0
26/08/2022,01:09:07,0.001,0.0,0.0,0.0
26/08/2022,01:10:09,-0.001,0.0,0.0,0.0
26/08/2022,01:11:06,0.001,0.0,0.0,0.0
26/08/2022,01:12:07,-0.001,0.0,0.0,0.0
26/08/2022,01:13:07,0.000,0.0,0.0,0.0
26/08/2022,01:14:07,0.000,0.0,0.0,0.0
26/08/2022,01:15:06,0.001,0.0,0.0,0.0
26/08/2022,01:16:06,0.000,0.0,0.0,0.0
26/08/2022,01:17:07,0.001,0.0,0.0,0.0
26/08/2022,01:18:06,0.000,0.0,0.0,0.0
26/08/2022,01:19:06,0.001,0.0,0.0,0.0
26/08/2022,01:20:15,0.000,0.0,0.0,0.0
26/08/2022,01:21:06,0.000,0.0,0.0,0.0
26/08/2022,01:22:06,0.000,0.0,0.0,0.0
26/08/2022,01:23:06,0.001,0.0,0.0,0.0
26/08/2022,01:24:07,0.000,0.0,0.0,0.0
26/08/2022,01:25:07,0.000,0.0,0.0,0.0
26/08/2022,01:26:07,0.000,0.0,0.0,0.0
26/08/2022,01:27:06,0.000,0.0,0.0,0.0
26/08/2022,01:28:07,0.001,0.0,0.0,0.0
26/08/2022,01:29:06,0.000,0.0,0.0,0.0
26/08/2022,01:30:07,0.001,0.0,0.0,0.0
26/08/2022,01:31:07,-0.001,0.0,0.0,0.0
26/08/2022,01:32:06,0.000,0.0,0.0,0.0
26/08/2022,01:33:07,-0.001,0.0,0.0,0.0
26/08/2022,01:34:06,0.000,0.0,0.0,0.0
26/08/2022,01:35:15,0.000,0.0,0.0,0.0
26/08/2022,01:36:06,0.000,0.0,0.0,0.0
26/08/2022,01:37:07,0.000,0.0,0.0,0.0
26/08/2022,01:38:06,0.000,0.0,0.0,0.0
26/08/2022,01:39:06,0.001,0.0,0.0,0.0
26/08/2022,01:40:07,0.001,0.0,0.0,0.0
26/08/2022,01:41:15,0.001,0.0,0.0,0.0
26/08/2022,01:42:06,0.000,0.0,0.0,0.0
26/08/2022,01:43:07,0.001,0.0,0.0,0.0
26/08/2022,01:44:07,0.000,0.0,0.0,0.0
26/08/2022,01:45:06,0.001,0.0,0.0,0.0
26/08/2022,01:46:07,0.000,0.0,0.0,0.0
26/08/2022,01:47:06,0.000,0.0,0.0,0.0
26/08/2022,01:48:07,0.001,0.0,0.0,0.0
26/08/2022,01:49:06,0.001,0.0,0.0,0.0
26/08/2022,01:50:06,0.001,0.0,0.0,0.0
26/08/2022,01:51:06,0.000,0.0,0.0,0.0
26/08/2022,01:52:07,0.000,0.0,0.0,0.0
26/08/2022,01:53:07,0.000,0.0,0.0,0.0
26/08/2022,01:54:15,0.000,0.0,0.0,0.0
26/08/2022,01:55:07,0.001,0.0,0.0,0.0
26/08/2022,01:56:06,0.000,0.0,0.0,0.0
26/08/2022,01:57:07,0.000,0.0,0.0,0.0
26/08/2022,01:58:07,0.000,0.0,0.0,0.0
26/08/2022,01:59:07,0.000,0.0,0.0,0.0
26/08/2022,02:00:07,-0.001,0.0,0.0,0.0
26/08/2022,02:01:07,0.001,0.0,0.0,0.0
26/08/2022,02:02:06,0.001,0.0,0.0,0.0
26/08/2022,02:03:06,0.001,0.0,0.0,0.0
26/08/2022,02:04:07,0.000,0.0,0.0,0.0
26/08/2022,02:05:07,0.000,0.0,0.0,0.0
26/08/2022,02:06:07,0.001,0.0,0.0,0.0
26/08/2022,02:07:07,0.000,0.0,0.0,0.0
26/08/2022,02:08:06,0.001,0.0,0.0,0.0
26/08/2022,02:09:14,0.001,0.0,0.0,0.0
26/08/2022,02:10:07,0.000,0.0,0.0,0.0
26/08/2022,02:11:06,0.001,0.0,0.0,0.0
26/08/2022,02:12:15,0.000,0.0,0.0,0.0
26/08/2022,02:13:07,0.001,0.0,0.0,0.0
26/08/2022,02:14:06,0.001,0.0,0.0,0.0
26/08/2022,02:15:14,-0.000,0.0,0.0,0.0
26/08/2022,02:16:06,0.001,0.0,0.0,0.0
26/08/2022,02:17:07,0.000,0.0,0.0,0.0
26/08/2022,02:18:15,0.000,0.0,0.0,0.0
26/08/2022,02:19:06,0.000,0.0,0.0,0.0
26/08/2022,02:20:07,0.001,0.0,0.0,0.0
26/08/2022,02:21:06,-0.000,0.0,0.0,0.0
26/08/2022,02:22:07,0.000,0.0,0.0,0.0
26/08/2022,02:23:08,0.000,0.0,0.0,0.0
26/08/2022,02:24:07,0.001,0.0,0.0,0.0
26/08/2022,02:25:07,0.001,0.0,0.0,0.0
26/08/2022,02:26:06,0.001,0.0,0.0,0.0
26/08/2022,02:27:08,0.001,0.0,0.0,0.0
26/08/2022,02:28:14,-0.000,0.0,0.0,0.0
26/08/2022,02:29:07,0.000,0.0,0.0,0.0
26/08/2022,02:30:15,-0.000,0.0,0.0,0.0
26/08/2022,02:31:07,-0.000,0.0,0.0,0.0
26/08/2022,02:32:06,-0.001,0.0,0.0,0.0
26/08/2022,02:33:06,0.000,0.0,0.0,0.0
26/08/2022,02:34:06,-0.000,0.0,0.0,0.0
26/08/2022,02:35:07,0.000,0.0,0.0,0.0
26/08/2022,02:36:07,0.001,0.0,0.0,0.0
26/08/2022,02:37:06,0.000,0.0,0.0,0.0
26/08/2022,02:38:07,-0.001,0.0,0.0,0.0
26/08/2022,02:39:06,0.001,0.0,0.0,0.0
26/08/2022,02:40:06,0.000,0.0,0.0,0.0
26/08/2022,02:41:07,0.000,0.0,0.0,0.0
26/08/2022,02:42:07,0.000,0.0,0.0,0.0
26/08/2022,02:43:15,0.000,0.0,0.0,0.0
26/08/2022,02:44:07,0.001,0.0,0.0,0.0
26/08/2022,02:45:09,0.000,0.0,0.0,0.0
26/08/2022,02:46:15,0.000,0.0,0.0,0.0
26/08/2022,02:47:07,0.000,0.0,0.0,0.0
26/08/2022,02:48:06,0.001,0.0,0.0,0.0
26/08/2022,02:49:15,0.000,0.0,0.0,0.0
26/08/2022,02:50:07,0.000,0.0,0.0,0.0
26/08/2022,02:51:06,0.000,0.0,0.0,0.0
26/08/2022,02:52:07,0.000,0.0,0.0,0.0
26/08/2022,02:53:06,0.001,0.0,0.0,0.0
26/08/2022,02:54:06,0.001,0.0,0.0,0.0
26/08/2022,02:55:06,-0.001,0.0,0.0,0.0
26/08/2022,02:56:06,0.000,0.0,0.0,0.0
26/08/2022,02:57:07,0.000,0.0,0.0,0.0
26/08/2022,02:58:06,0.000,0.0,0.0,0.0
26/08/2022,02:59:07,0.000,0.0,0.0,0.0
26/08/2022,03:00:07,0.000,0.0,0.0,0.0
26/08/2022,03:01:07,-0.001,0.0,0.0,0.0
26/08/2022,03:02:07,0.000,0.0,0.0,0.0
26/08/2022,03:03:06,0.000,0.0,0.0,0.0
26/08/2022,03:04:15,0.001,0.0,0.0,0.0
26/08/2022,03:05:07,0.000,0.0,0.0,0.0
26/08/2022,03:06:07,0.001,0.0,0.0,0.0
26/08/2022,03:07:07,-0.001,0.0,0.0,0.0
26/08/2022,03:08:07,0.001,0.0,0.0,0.0
26/08/2022,03:09:06,0.001,0.0,0.0,0.0
26/08/2022,03:10:06,0.000,0.0,0.0,0.0
26/08/2022,03:11:07,-0.001,0.0,0.0,0.0
26/08/2022,03:12:07,0.000,0.0,0.0,0.0
26/08/2022,03:13:07,0.000,0.0,0.0,0.0
26/08/2022,03:14:15,-0.001,0.0,0.0,0.0
26/08/2022,03:15:06,0.000,0.0,0.0,0.0
26/08/2022,03:16:07,0.000,0.0,0.0,0.0
26/08/2022,03:17:07,-0.001,0.0,0.0,0.0
26/08/2022,03:18:06,0.001,0.0,0.0,0.0
26/08/2022,03:19:07,-0.000,0.0,0.0,0.0
26/08/2022,03:20:15,0.001,0.0,0.0,0.0
26/08/2022,03:21:06,-0.000,0.0,0.0,0.0
26/08/2022,03:22:06,0.000,0.0,0.0,0.0
26/08/2022,03:23:07,0.000,0.0,0.0,0.0
26/08/2022,03:24:07,-0.000,0.0,0.0,0.0
26/08/2022,03:25:07,0.000,0.0,0.0,0.0
26/08/2022,03:26:06,0.001,0.0,0.0,0.0
26/08/2022,03:27:07,0.000,0.0,0.0,0.0
26/08/2022,03:28:07,0.000,0.0,0.0,0.0
26/08/2022,03:29:08,0.000,0.0,0.0,0.0
26/08/2022,03:30:07,0.000,0.0,0.0,0.0
26/08/2022,03:31:07,-0.000,0.0,0.0,0.0
26/08/2022,03:32:07,-0.000,0.0,0.0,0.0
26/08/2022,03:33:07,0.000,0.0,0.0,0.0
26/08/2022,03:34:06,0.000,0.0,0.0,0.0
26/08/2022,03:35:16,0.000,0.0,0.0,0.0
26/08/2022,03:36:07,0.000,0.0,0.0,0.0
26/08/2022,03:37:07,0.000,0.0,0.0,0.0
26/08/2022,03:38:16,0.002,0.0,0.0,0.0
26/08/2022,03:39:05,0.000,0.0,0.0,0.0
26/08/2022,03:40:07,-0.000,0.0,0.0,0.0
26/08/2022,03:41:08,0.001,0.0,0.0,0.0
26/08/2022,03:42:07,-0.001,0.0,0.0,0.0
26/08/2022,03:43:07,0.000,0.0,0.0,0.0
26/08/2022,03:44:07,0.001,0.0,0.0,0.0
26/08/2022,03:45:07,0.000,0.0,0.0,0.0
26/08/2022,03:46:07,0.001,0.0,0.0,0.0
26/08/2022,03:47:07,0.000,0.0,0.0,0.0
26/08/2022,03:48:32,0.001,0.0,0.0,0.0
26/08/2022,03:50:08,0.000,0.0,0.0,0.0
26/08/2022,03:51:07,0.001,0.0,0.0,0.0
26/08/2022,03:52:06,0.000,0.0,0.0,0.0
26/08/2022,03:53:07,0.001,0.0,0.0,0.0
26/08/2022,03:54:15,0.000,0.0,0.0,0.0
26/08/2022,03:55:07,0.000,0.0,0.0,0.0
26/08/2022,03:56:07,0.000,0.0,0.0,0.0
26/08/2022,03:57:07,0.000,0.0,0.0,0.0
26/08/2022,03:58:07,0.001,0.0,0.0,0.0
26/08/2022,03:59:07,0.002,0.0,0.0,0.0
26/08/2022,04:00:19,0.000,0.0,0.0,0.0
26/08/2022,04:02:08,0.001,0.0,0.0,0.0
26/08/2022,04:03:07,0.000,0.0,0.0,0.0
26/08/2022,04:04:07,0.000,0.0,0.0,0.0
26/08/2022,04:05:07,-0.000,0.0,0.0,0.0
26/08/2022,04:06:07,0.000,0.0,0.0,0.0
26/08/2022,04:07:06,0.000,0.0,0.0,0.0
26/08/2022,04:08:07,0.000,0.0,0.0,0.0
26/08/2022,04:09:15,0.000,0.0,0.0,0.0
26/08/2022,04:10:06,-0.000,0.0,0.0,0.0
26/08/2022,04:11:07,0.001,0.0,0.0,0.0
26/08/2022,04:12:15,-0.001,0.0,0.0,0.0
26/08/2022,04:13:06,0.001,0.0,0.0,0.0
26/08/2022,04:14:07,0.000,0.0,0.0,0.0
26/08/2022,04:15:15,0.001,0.0,0.0,0.0
26/08/2022,04:16:06,0.000,0.0,0.0,0.0
26/08/2022,04:17:06,0.001,0.0,0.0,0.0
26/08/2022,04:18:07,0.001,0.0,0.0,0.0
26/08/2022,04:19:06,0.000,0.0,0.0,0.0
26/08/2022,04:20:06,0.001,0.0,0.0,0.0
26/08/2022,04:21:07,0.000,0.0,0.0,0.0
26/08/2022,04:22:07,0.000,0.0,0.0,0.0
26/08/2022,04:23:07,0.000,0.0,0.0,0.0
26/08/2022,04:24:07,0.000,0.0,0.0,0.0
26/08/2022,04:25:07,0.001,0.0,0.0,0.0
26/08/2022,04:26:07,-0.000,0.0,0.0,0.0
26/08/2022,04:27:07,0.000,0.0,0.0,0.0
26/08/2022,04:28:07,-0.001,0.0,0.0,0.0
26/08/2022,04:29:07,0.000,0.0,0.0,0.0
26/08/2022,04:30:07,0.000,0.0,0.0,0.0
26/08/2022,04:31:07,0.000,0.0,0.0,0.0
26/08/2022,04:32:07,0.000,0.0,0.0,0.0
26/08/2022,04:33:06,-0.000,0.0,0.0,0.0
26/08/2022,04:34:06,0.000,0.0,0.0,0.0
26/08/2022,04:35:07,0.001,0.0,0.0,0.0
26/08/2022,04:36:07,0.000,0.0,0.0,0.0
26/08/2022,04:37:08,0.001,0.0,0.0,0.0
26/08/2022,04:38:06,0.002,0.0,0.0,0.0
26/08/2022,04:39:07,-0.001,0.0,0.0,0.0
26/08/2022,04:40:07,-0.000,0.0,0.0,0.0
26/08/2022,04:41:07,0.000,0.0,0.0,0.0
26/08/2022,04:42:07,0.001,0.0,0.0,0.0
26/08/2022,04:43:07,-0.000,0.0,0.0,0.0
26/08/2022,04:44:07,0.001,0.0,0.0,0.0
26/08/2022,04:45:06,0.001,0.0,0.0,0.0
26/08/2022,04:46:15,0.001,0.0,0.0,0.0
26/08/2022,04:47:06,0.002,0.0,0.0,0.0
26/08/2022,04:48:07,0.000,0.0,0.0,0.0
26/08/2022,04:49:15,0.001,0.0,0.0,0.0
26/08/2022,04:50:07,0.000,0.0,0.0,0.0
26/08/2022,04:51:15,0.001,0.0,0.0,0.0
26/08/2022,04:52:18,0.001,0.0,0.0,0.0
26/08/2022,04:54:08,0.001,0.0,0.0,0.0
26/08/2022,04:55:07,-0.000,0.0,0.0,0.0
26/08/2022,04:56:07,0.000,0.0,0.0,0.0
26/08/2022,04:57:07,0.001,0.0,0.0,0.0
26/08/2022,04:58:07,0.002,0.0,0.0,0.0
26/08/2022,04:59:07,0.001,0.0,0.0,0.0
26/08/2022,05:00:07,0.001,0.0,0.0,0.0
26/08/2022,05:01:06,0.000,0.0,0.0,0.0
26/08/2022,05:02:16,0.001,0.0,0.0,0.0
26/08/2022,05:03:07,-0.000,0.0,0.0,0.0
26/08/2022,05:04:07,0.001,0.0,0.0,0.0
26/08/2022,05:05:07,0.001,0.0,0.0,0.0
26/08/2022,05:06:15,0.001,0.0,0.0,0.0
26/08/2022,05:07:07,0.002,0.0,0.0,0.0
26/08/2022,05:08:07,0.002,0.0,0.0,0.0
26/08/2022,05:09:07,0.002,0.0,0.0,0.0
26/08/2022,05:10:06,0.003,0.0,0.0,0.0
26/08/2022,05:11:07,0.001,0.0,0.0,0.0
26/08/2022,05:12:07,0.002,0.0,0.0,0.0
26/08/2022,05:13:07,0.002,0.0,0.0,0.0
26/08/2022,05:14:07,0.003,0.0,0.0,0.0
26/08/2022,05:15:15,0.003,0.0,0.0,0.0
26/08/2022,05:16:07,0.003,0.0,0.0,0.0
26/08/2022,05:17:06,0.003,0.0,0.0,0.0
26/08/2022,05:18:07,0.003,0.0,0.0,0.0
26/08/2022,05:19:07,0.003,0.0,0.0,0.0
26/08/2022,05:20:07,0.004,0.0,0.0,0.0
26/08/2022,05:21:07,0.004,0.0,0.0,0.0
26/08/2022,05:22:07,0.004,0.0,0.0,0.0
26/08/2022,05:23:07,0.005,0.0,0.0,0.0
26/08/2022,05:24:07,0.004,0.0,0.0,0.0
26/08/2022,05:25:07,0.004,0.0,0.0,0.0
26/08/2022,05:26:07,0.005,0.0,0.0,0.0
26/08/2022,05:27:07,0.005,0.0,0.0,0.0
26/08/2022,05:28:07,0.006,0.0,0.0,0.0
26/08/2022,05:29:07,0.006,0.0,0.0,0.0
26/08/2022,05:30:07,0.007,0.0,0.0,0.0
26/08/2022,05:31:07,0.007,0.0,0.0,0.0
26/08/2022,05:32:07,0.007,0.0,0.0,0.0
26/08/2022,05:33:15,0.007,0.0,0.001,0.001
26/08/2022,05:34:07,0.007,0.0,0.001,0.0
26/08/2022,05:35:07,0.008,0.0,0.001,0.0
26/08/2022,05:36:07,0.008,0.0,0.001,0.0
26/08/2022,05:37:07,0.009,0.0,0.001,0.0
26/08/2022,05:38:07,0.009,0.0,0.001,0.0
26/08/2022,05:39:07,0.010,0.0,0.001,0.0
26/08/2022,05:40:07,0.010,0.0,0.002,0.001
26/08/2022,05:41:07,0.010,0.0,0.002,0.0
26/08/2022,05:42:07,0.011,0.0,0.002,0.0
26/08/2022,05:43:07,0.012,0.0,0.002,0.0
26/08/2022,05:44:07,0.012,0.0,0.002,0.0
26/08/2022,05:45:07,0.013,0.0,0.002,0.0
26/08/2022,05:46:15,0.013,0.0,0.003,0.001
26/08/2022,05:47:07,0.013,0.0,0.003,0.0
26/08/2022,05:48:07,0.013,0.0,0.003,0.0
26/08/2022,05:49:15,0.015,0.0,0.003,0.0
26/08/2022,05:50:07,0.015,0.0,0.004,0.001
26/08/2022,05:51:07,0.016,0.0,0.004,0.0
26/08/2022,05:52:07,0.016,0.0,0.004,0.0
26/08/2022,05:53:07,0.017,0.0,0.004,0.0
26/08/2022,05:54:08,0.017,0.0,0.005,0.001
26/08/2022,05:55:07,0.018,0.0,0.005,0.0
26/08/2022,05:56:07,0.019,0.0,0.005,0.0
26/08/2022,05:57:07,0.020,0.0,0.006,0.001
26/08/2022,05:58:07,0.021,0.0,0.006,0.0
26/08/2022,05:59:07,0.020,0.0,0.006,0.0
26/08/2022,06:00:07,0.022,0.0,0.007,0.001
26/08/2022,06:01:07,0.022,0.0,0.007,0.0
26/08/2022,06:02:07,0.023,0.0,0.007,0.0
26/08/2022,06:03:07,0.024,0.0,0.008,0.001
26/08/2022,06:04:07,0.024,0.0,0.008,0.0
26/08/2022,06:05:07,0.026,0.0,0.009,0.001
26/08/2022,06:06:07,0.026,0.0,0.009,0.0
26/08/2022,06:07:07,0.026,0.0,0.01,0.001
26/08/2022,06:08:07,0.027,0.0,0.01,0.0
26/08/2022,06:09:07,0.028,0.0,0.01,0.0
26/08/2022,06:10:07,0.028,0.0,0.011,0.001
26/08/2022,06:11:07,0.029,0.0,0.011,0.0
26/08/2022,06:12:07,0.030,0.0,0.012,0.001
26/08/2022,06:13:07,0.031,0.0,0.012,0.0
26/08/2022,06:14:15,0.032,0.0,0.013,0.001
26/08/2022,06:15:06,0.033,0.0,0.013,0.0
26/08/2022,06:16:07,0.035,0.0,0.014,0.001
26/08/2022,06:17:16,0.036,0.0,0.015,0.001
26/08/2022,06:18:07,0.037,0.0,0.015,0.0
26/08/2022,06:19:07,0.036,0.0,0.016,0.001
26/08/2022,06:20:07,0.038,0.0,0.017,0.001
26/08/2022,06:21:07,0.038,0.0,0.017,0.0
26/08/2022,06:22:07,0.039,0.0,0.018,0.001
26/08/2022,06:23:07,0.040,0.0,0.018,0.0
26/08/2022,06:24:07,0.041,0.0,0.019,0.001
26/08/2022,06:25:07,0.041,0.0,0.02,0.001
26/08/2022,06:26:07,0.041,0.0,0.021,0.001
26/08/2022,06:27:15,0.042,0.0,0.021,0.0
26/08/2022,06:28:07,0.043,0.0,0.022,0.001
26/08/2022,06:29:07,0.042,0.0,0.023,0.001
26/08/2022,06:30:17,0.042,0.0,0.023,0.0
26/08/2022,06:31:06,0.044,0.0,0.024,0.001
26/08/2022,06:32:07,0.043,0.0,0.025,0.001
26/08/2022,06:33:07,0.043,0.0,0.025,0.0
26/08/2022,06:34:07,0.044,0.0,0.026,0.001
26/08/2022,06:35:07,0.043,0.0,0.027,0.001
26/08/2022,06:36:07,0.045,0.0,0.028,0.001
26/08/2022,06:37:07,0.045,0.0,0.028,0.0
26/08/2022,06:38:07,0.045,0.0,0.029,0.001
26/08/2022,06:39:07,0.048,0.0,0.03,0.001
26/08/2022,06:40:16,0.051,0.0,0.031,0.001
26/08/2022,06:41:07,0.053,0.0,0.032,0.001
26/08/2022,06:42:07,0.056,0.0,0.033,0.001
26/08/2022,06:43:07,0.058,0.0,0.033,0.0
26/08/2022,06:44:07,0.059,0.0,0.034,0.001
26/08/2022,06:45:07,0.060,0.0,0.035,0.001
26/08/2022,06:46:07,0.064,0.0,0.036,0.001
26/08/2022,06:47:07,0.066,0.0,0.038,0.002
26/08/2022,06:48:07,0.065,0.0,0.039,0.001
26/08/2022,06:49:07,0.066,0.0,0.04,0.001
26/08/2022,06:50:07,0.066,0.0,0.041,0.001
26/08/2022,06:51:07,0.070,0.0,0.042,0.001
26/08/2022,06:52:07,0.075,0.0,0.043,0.001
26/08/2022,06:53:07,0.079,0.0,0.044,0.001
26/08/2022,06:54:06,0.082,0.0,0.046,0.002
26/08/2022,06:55:08,0.084,0.0,0.047,0.001
26/08/2022,06:56:07,0.088,0.0,0.049,0.002
26/08/2022,06:57:15,0.094,0.0,0.05,0.001
26/08/2022,06:58:07,0.096,0.0,0.052,0.002
26/08/2022,06:59:07,0.099,0.0,0.053,0.001
26/08/2022,07:00:07,0.100,0.0,0.055,0.002
26/08/2022,07:01:07,0.100,0.0,0.057,0.002
26/08/2022,07:02:07,0.101,0.0,0.058,0.001
26/08/2022,07:03:07,0.103,0.0,0.06,0.002
26/08/2022,07:04:08,0.103,0.0,0.062,0.002
26/08/2022,07:05:07,0.104,0.0,0.064,0.002
26/08/2022,07:06:07,0.106,0.0,0.065,0.001
26/08/2022,07:07:07,0.108,0.0,0.067,0.002
26/08/2022,07:08:07,0.111,0.0,0.069,0.002
26/08/2022,07:09:08,0.116,0.0,0.071,0.002
26/08/2022,07:10:07,0.119,0.0,0.073,0.002
26/08/2022,07:11:15,0.124,0.0,0.075,0.002
26/08/2022,07:12:07,0.125,0.0,0.077,0.002
26/08/2022,07:13:07,0.130,0.0,0.079,0.002
26/08/2022,07:14:07,0.133,0.0,0.081,0.002
26/08/2022,07:15:07,0.136,0.0,0.083,0.002
26/08/2022,07:16:07,0.138,0.0,0.086,0.003
26/08/2022,07:17:07,0.143,0.0,0.088,0.002
26/08/2022,07:18:07,0.148,0.0,0.09,0.002
26/08/2022,07:19:07,0.151,0.0,0.093,0.003
26/08/2022,07:20:07,0.155,0.0,0.096,0.003
26/08/2022,07:21:16,0.159,0.0,0.099,0.003
26/08/2022,07:22:07,0.162,0.0,0.101,0.002
26/08/2022,07:23:07,0.166,0.0,0.104,0.003
26/08/2022,07:24:15,0.172,0.0,0.107,0.003
26/08/2022,07:25:08,0.176,0.0,0.109,0.002
26/08/2022,07:26:07,0.181,0.0,0.112,0.003
26/08/2022,07:27:16,0.186,0.0,0.116,0.004
26/08/2022,07:28:07,0.190,0.0,0.118,0.002
26/08/2022,07:29:07,0.198,0.0,0.122,0.004
26/08/2022,07:30:07,0.203,0.0,0.125,0.003
26/08/2022,07:31:08,0.204,0.0,0.128,0.003
26/08/2022,07:32:07,0.210,0.0,0.132,0.004
26/08/2022,07:33:07,0.214,0.0,0.135,0.003
26/08/2022,07:34:07,0.217,0.0,0.139,0.004
26/08/2022,07:35:07,0.218,1.0,0.143,0.004
26/08/2022,07:36:08,0.223,1.0,0.146,0.003
26/08/2022,07:37:15,0.218,1.0,0.151,0.005
26/08/2022,07:38:07,0.223,1.0,0.154,0.003
26/08/2022,07:39:07,0.223,1.0,0.157,0.003
26/08/2022,07:40:07,0.224,1.0,0.161,0.004
26/08/2022,07:41:07,0.227,1.0,0.165,0.004
26/08/2022,07:42:07,0.226,1.0,0.169,0.004
26/08/2022,07:43:07,0.225,1.0,0.172,0.003
26/08/2022,07:44:07,0.233,1.0,0.176,0.004
26/08/2022,07:45:08,0.238,1.0,0.18,0.004
26/08/2022,07:46:07,0.241,1.0,0.184,0.004
26/08/2022,07:47:07,0.244,1.0,0.188,0.004
26/08/2022,07:48:07,0.251,1.0,0.192,0.004
26/08/2022,07:49:07,0.262,1.0,0.197,0.005
26/08/2022,07:50:07,0.272,1.0,0.201,0.004
26/08/2022,07:51:08,0.285,1.0,0.206,0.005
26/08/2022,07:52:15,0.288,1.0,0.211,0.005
26/08/2022,07:53:07,0.292,1.0,0.215,0.004
26/08/2022,07:54:08,0.295,1.0,0.22,0.005
26/08/2022,07:55:08,0.290,1.0,0.225,0.005
26/08/2022,07:56:08,0.298,1.0,0.23,0.005
26/08/2022,07:57:07,0.309,1.0,0.235,0.005
26/08/2022,07:58:07,0.317,1.0,0.24,0.005
26/08/2022,07:59:08,0.318,1.0,0.246,0.006
26/08/2022,08:00:07,0.340,1.0,0.251,0.005
26/08/2022,08:01:08,0.323,1.0,0.257,0.006
26/08/2022,08:02:07,0.342,1.0,0.262,0.005
26/08/2022,08:03:07,0.338,1.0,0.268,0.006
26/08/2022,08:04:07,0.353,1.0,0.273,0.005
26/08/2022,08:05:07,0.365,1.0,0.279,0.006
26/08/2022,08:06:07,0.362,1.0,0.286,0.007
26/08/2022,08:07:08,0.369,1.0,0.292,0.006
26/08/2022,08:08:16,0.368,1.0,0.299,0.007
26/08/2022,08:09:07,0.369,1.0,0.304,0.005
26/08/2022,08:10:07,0.384,1.0,0.31,0.006
26/08/2022,08:11:08,0.380,1.0,0.317,0.007
26/08/2022,08:12:07,0.375,1.0,0.323,0.006
26/08/2022,08:13:07,0.373,1.0,0.329,0.006
26/08/2022,08:14:07,0.384,1.0,0.335,0.006
26/08/2022,08:15:07,0.408,1.0,0.342,0.007
26/08/2022,08:16:07,0.410,1.0,0.349,0.007
26/08/2022,08:17:07,0.414,1.0,0.356,0.007
26/08/2022,08:18:07,0.434,1.0,0.363,0.007
26/08/2022,08:19:07,0.443,1.0,0.37,0.007
26/08/2022,08:20:08,0.451,1.0,0.378,0.008
26/08/2022,08:21:09,0.456,1.0,0.385,0.007
26/08/2022,08:22:07,0.461,1.0,0.393,0.008
26/08/2022,08:23:17,0.467,1.0,0.402,0.009
26/08/2022,08:24:07,0.471,1.0,0.408,0.006
26/08/2022,08:25:08,0.476,1.0,0.416,0.008
26/08/2022,08:26:08,0.483,1.0,0.424,0.008
26/08/2022,08:27:07,0.489,1.0,0.432,0.008
26/08/2022,08:28:10,0.497,1.0,0.441,0.009
26/08/2022,08:29:15,0.503,1.0,0.45,0.009
26/08/2022,08:30:08,0.508,1.0,0.457,0.007
26/08/2022,08:31:08,0.507,1.0,0.466,0.009
26/08/2022,08:32:07,0.521,1.0,0.474,0.008
26/08/2022,08:33:07,0.520,1.0,0.483,0.009
26/08/2022,08:34:07,0.519,1.0,0.491,0.008
26/08/2022,08:35:07,0.511,1.0,0.5,0.009
26/08/2022,08:36:08,0.495,1.0,0.508,0.008
26/08/2022,08:37:07,0.492,1.0,0.517,0.009
26/08/2022,08:38:07,0.479,1.0,0.525,0.008
26/08/2022,08:39:15,0.480,1.0,0.534,0.009
26/08/2022,08:40:07,0.514,1.0,0.541,0.007
26/08/2022,08:41:08,0.528,1.0,0.55,0.009
26/08/2022,08:42:15,0.552,1.0,0.56,0.01
26/08/2022,08:43:07,0.558,1.0,0.567,0.007
26/08/2022,08:44:07,0.576,1.0,0.577,0.01
26/08/2022,08:45:07,0.597,1.0,0.587,0.01
26/08/2022,08:46:07,0.606,1.0,0.597,0.01
26/08/2022,08:47:07,0.609,1.0,0.607,0.01
26/08/2022,08:48:08,0.607,1.0,0.617,0.01
26/08/2022,08:49:07,0.614,1.0,0.627,0.01
26/08/2022,08:50:07,0.602,1.0,0.637,0.01
26/08/2022,08:51:07,0.628,1.0,0.647,0.01
26/08/2022,08:52:07,0.637,1.0,0.658,0.011
26/08/2022,08:53:08,0.644,1.0,0.669,0.011
26/08/2022,08:54:16,0.652,2.0,0.681,0.012
26/08/2022,08:55:08,0.648,1.0,0.691,0.01
26/08/2022,08:56:07,0.640,1.0,0.701,0.01
26/08/2022,08:57:16,0.632,1.0,0.713,0.012
26/08/2022,08:58:06,0.644,1.0,0.722,0.009
26/08/2022,08:59:07,0.673,2.0,0.733,0.011
26/08/2022,09:00:15,0.689,2.0,0.746,0.013
26/08/2022,09:01:08,0.702,2.0,0.756,0.01
26/08/2022,09:02:08,0.714,2.0,0.768,0.012
26/08/2022,09:03:07,0.722,2.0,0.78,0.012
26/08/2022,09:04:08,0.729,2.0,0.792,0.012
26/08/2022,09:05:07,0.724,2.0,0.804,0.012
26/08/2022,09:06:07,0.649,1.0,0.816,0.012
26/08/2022,09:07:08,0.649,1.0,0.827,0.011
26/08/2022,09:08:07,0.697,2.0,0.838,0.011
26/08/2022,09:09:07,0.686,2.0,0.849,0.011
26/08/2022,09:10:07,0.631,1.0,0.86,0.011
26/08/2022,09:11:07,0.603,1.0,0.87,0.01
26/08/2022,09:12:16,0.597,1.0,0.882,0.012
26/08/2022,09:13:08,0.602,1.0,0.89,0.008
26/08/2022,09:14:07,0.608,1.0,0.9,0.01
26/08/2022,09:15:15,0.624,1.0,0.912,0.012
26/08/2022,09:16:08,0.620,1.0,0.921,0.009
26/08/2022,09:17:07,0.627,1.0,0.932,0.011
26/08/2022,09:18:07,0.632,1.0,0.942,0.01
26/08/2022,09:19:07,0.766,2.0,0.953,0.011
26/08/2022,09:20:08,0.732,2.0,0.967,0.014
26/08/2022,09:21:07,0.817,2.0,0.98,0.013
26/08/2022,09:22:07,0.857,2.0,0.994,0.014
26/08/2022,09:23:07,0.867,2.0,1.009,0.015
26/08/2022,09:24:07,0.811,2.0,1.022,0.013
26/08/2022,09:25:07,0.859,2.0,1.036,0.014
26/08/2022,09:26:07,0.896,2.0,1.051,0.015
26/08/2022,09:27:07,0.894,2.0,1.066,0.015
26/08/2022,09:28:32,0.883,2.0,1.087,0.021
26/08/2022,09:30:07,0.905,2.0,1.111,0.024
26/08/2022,09:31:07,0.924,2.0,1.126,0.015
26/08/2022,09:32:07,0.919,2.0,1.142,0.016
26/08/2022,09:33:07,0.845,2.0,1.157,0.015
26/08/2022,09:34:16,0.928,2.0,1.173,0.016
26/08/2022,09:35:07,0.804,2.0,1.186,0.013
26/08/2022,09:36:15,0.709,2.0,1.2,0.014
26/08/2022,09:37:08,0.690,2.0,1.21,0.01
26/08/2022,09:38:07,0.677,2.0,1.221,0.011
26/08/2022,09:39:07,0.683,2.0,1.233,0.012
26/08/2022,09:40:07,0.707,2.0,1.244,0.011
26/08/2022,09:41:07,0.703,2.0,1.256,0.012
26/08/2022,09:42:07,0.816,2.0,1.268,0.012
26/08/2022,09:43:07,0.773,2.0,1.281,0.013
26/08/2022,09:44:08,0.761,2.0,1.294,0.013
26/08/2022,09:45:07,0.869,2.0,1.307,0.013
26/08/2022,09:46:07,0.745,2.0,1.321,0.014
26/08/2022,09:47:08,0.718,2.0,1.333,0.012
26/08/2022,09:48:07,0.854,2.0,1.346,0.013
26/08/2022,09:49:16,0.716,2.0,1.36,0.014
26/08/2022,09:50:07,0.743,2.0,1.37,0.01
26/08/2022,09:51:07,0.758,2.0,1.383,0.013
26/08/2022,09:52:16,1.003,2.0,1.399,0.016
26/08/2022,09:53:07,0.758,2.0,1.41,0.011
26/08/2022,09:54:07,0.755,2.0,1.423,0.013
26/08/2022,09:55:07,0.891,2.0,1.435,0.012
26/08/2022,09:56:07,0.765,2.0,1.45,0.015
26/08/2022,09:56:58,0.764,2.0,1.461,0.011
26/08/2022,09:58:08,0.774,2.0,1.478,0.017
26/08/2022,09:59:08,0.796,2.0,1.491,0.013
26/08/2022,10:00:07,0.908,2.0,1.505,0.014
26/08/2022,10:01:08,0.786,2.0,1.518,0.013
26/08/2022,10:02:07,1.114,3.0,1.535,0.017
26/08/2022,10:03:08,0.851,2.0,1.551,0.016
26/08/2022,10:04:07,1.153,3.0,1.568,0.017
26/08/2022,10:05:07,1.191,3.0,1.588,0.02
26/08/2022,10:06:07,1.188,3.0,1.606,0.018
26/08/2022,10:07:08,1.181,3.0,1.626,0.02
26/08/2022,10:08:07,1.183,3.0,1.646,0.02
26/08/2022,10:09:07,0.799,2.0,1.663,0.017
26/08/2022,10:10:15,0.782,2.0,1.678,0.015
26/08/2022,10:11:07,0.771,2.0,1.689,0.011
26/08/2022,10:12:07,0.849,2.0,1.702,0.013
26/08/2022,10:13:16,0.920,2.0,1.718,0.016
26/08/2022,10:14:07,0.788,2.0,1.729,0.011
26/08/2022,10:15:07,0.842,2.0,1.743,0.014
26/08/2022,10:16:07,0.895,2.0,1.759,0.016